カタログに戻る

STARLINK-36109

運用中通信VLEO
NORAD 66943·PAYLOAD·🇺🇸 United States

打ち上げ Dec 7, 2025 から Vandenberg Space Force Base

Loading…

次のパス (今後24時間)

TLE

最新Source: CelesTrak SupGP

元期: Sep 15, 2026, 02:32 UTC

1 66943C 25286U   26258.10604167 -.00083775  00000+0 -24751-2 0  2589
2 66943  53.1572 194.7559 0001267  93.8651 203.7588 15.34433269    15

AllMySatでSTARLINK-36109をリアルタイム追跡

Download on the App Store